User: anonymous   Login
Location: Unspecified
(0.0000°N, 0.0000°E)
Time: 09:16:57
(UTC+00:00)
Language:

AOXIANG-1 - Orbit

View from above orbital plane
View from above orbital plane
View from above satellite
View from above satellite

Ground track
Ground track

The orbit data is extracted from the following two-line orbital elements,

1 42735U 98067MQ  18267.90169471 +.00028018 +00000-0 +22123-3 0  9994
2 42735 051.6334 211.8668 0003491 233.4612 126.6064 15.71159584077370
Epoch (UTC): 24 September 2018 21:38:26
Eccentricity: 0.0003491
inclination: 51.6334°
perigee height: 353 km
apogee height: 358 km
right ascension of ascending node: 211.8668°
argument of perigee: 233.4612°
revolutions per day: 15.71159584
mean anomaly at epoch: 126.6064°
orbit number at epoch: 7737

The dashed part of the orbit path shows where the satellite is in the earth's shadow,  

DLR